Location: Unspecified
(0.0000°N, 0.0000°E)
Time: 17:17:43
(UTC+00:00)

Vanguard 1 Rocket - All Passes

Search period start: 20 November 2017 00:00
Search period end: 30 November 2017 00:00
Orbit: 655 x 4222 km, 34.3° (Epoch: 18 November)

Date Brightness Start Highest point End Pass type
(mag) Time Alt. Az. Time Alt. Az. Time Alt. Az.
20 Nov - 00:46:43 10° NW 01:03:31 20° N 01:17:24 10° NNE visible
20 Nov - 03:29:14 10° NNW 03:42:09 21° N 03:50:48 10° NE visible
20 Nov - 06:01:08 10° NW 06:13:26 48° NNE 06:20:00 10° ESE daylight
20 Nov - 08:32:39 10° W 08:39:03 28° SW 08:43:26 10° SSE daylight
20 Nov - 15:59:48 10° S 16:06:45 20° SE 16:17:01 10° E daylight
20 Nov - 18:21:45 10° SW 18:34:36 74° SE 18:58:28 10° ENE visible
20 Nov - 20:49:10 10° WSW 21:06:58 51° NNW 21:32:08 10° NE visible
20 Nov - 23:26:23 10° WNW 23:45:18 25° NNW 00:03:25 10° NNE visible
21 Nov - 02:11:47 10° NW 02:26:15 19° N 02:36:48 10° NE visible
21 Nov - 04:46:48 10° NW 05:00:39 33° NNE 05:08:31 10° E visible
21 Nov - 07:18:06 10° WNW 07:28:24 68° SW 07:34:01 10° SE daylight
21 Nov - 17:11:29 10° SSW 17:21:52 48° SE 17:41:05 10° ENE daylight
21 Nov - 19:36:26 10° WSW 19:51:38 68° NW 20:17:10 10° NE visible
21 Nov - 22:08:37 10° W 22:27:30 32° NNW 22:49:14 10° NE visible
22 Nov - 00:52:16 10° NW 01:08:47 20° N 01:22:10 10° NE visible
22 Nov - 03:31:37 10° NNW 03:46:39 26° NNE 03:56:02 10° ENE visible
22 Nov - 06:03:42 10° NW 06:17:02 68° NNE 06:23:48 10° ESE daylight
22 Nov - 08:37:13 10° W 08:42:09 18° SW 08:45:53 10° S daylight
22 Nov - 16:02:12 10° S 16:09:53 26° SE 16:22:20 10° E daylight
22 Nov - 18:24:58 10° SW 18:37:33 89° SE 19:01:22 10° NE visible
22 Nov - 20:53:26 10° W 21:10:40 42° NNW 21:34:41 10° NE visible
22 Nov - 23:32:15 10° WNW 23:50:19 23° NNW 00:07:18 10° NE visible
23 Nov - 02:15:07 10° NW 02:31:10 22° N 02:42:19 10° NE visible
23 Nov - 04:49:04 10° NW 05:04:36 45° NNE 05:12:47 10° E visible
23 Nov - 07:21:36 10° WNW 07:31:31 45° SW 07:37:09 10° SSE daylight
23 Nov - 14:55:54 10° SSE 14:58:03 11° SE 15:00:27 10° SE daylight
23 Nov - 17:14:28 10° SW 17:24:43 60° SE 17:44:39 10° ENE daylight
23 Nov - 19:40:13 10° WSW 19:55:02 56° NNW 20:19:39 10° NE visible
23 Nov - 22:13:57 10° WNW 22:32:00 28° NNW 22:52:22 10° NE visible
24 Nov - 00:57:02 10° NW 01:14:03 21° N 01:27:27 10° NE visible
24 Nov - 03:33:54 10° NW 03:50:55 33° NNE 04:00:49 10° E visible
24 Nov - 06:06:32 10° NW 06:20:25 88° SW 06:27:20 10° SE daylight
24 Nov - 08:43:05 10° WSW 08:45:20 12° SW 08:47:18 10° SSW daylight
24 Nov - 16:04:51 10° SSW 16:12:51 34° SE 16:26:56 10° ENE daylight
24 Nov - 18:28:24 10° WSW 18:40:41 76° NW 19:04:03 10° NE visible
24 Nov - 20:58:04 10° W 21:14:42 35° NNW 21:37:19 10° NE visible
24 Nov - 23:37:57 10° NW 23:55:37 21° N 00:11:48 10° NE visible
25 Nov - 02:17:58 10° NW 02:35:51 27° NNE 02:47:37 10° ENE visible
25 Nov - 04:51:28 10° NW 05:08:18 60° NNE 05:16:44 10° ESE visible
25 Nov - 07:25:32 10° WNW 07:34:32 31° SW 07:40:01 10° SSE daylight
25 Nov - 14:56:42 10° S 15:01:22 16° SE 15:07:43 10° ESE daylight
25 Nov - 17:17:37 10° SW 17:27:39 76° SE 17:47:50 10° ENE daylight
25 Nov - 19:44:18 10° W 19:58:41 46° NNW 20:22:04 10° NE visible
25 Nov - 22:19:33 10° WNW 22:36:54 24° NNW 22:55:56 10° NE visible
26 Nov - 01:01:00 10° NW 01:19:11 23° N 01:32:57 10° NE visible
26 Nov - 03:36:11 10° NW 03:54:57 43° NNE 04:05:14 10° E visible
26 Nov - 06:09:39 10° WNW 06:23:35 65° SW 06:30:38 10° SE daylight
26 Nov - 16:07:42 10° SSW 16:15:45 45° SE 16:30:58 10° ENE daylight
26 Nov - 18:32:04 10° WSW 18:44:03 61° NNW 19:06:32 10° NE visible
26 Nov - 21:03:05 10° WNW 21:19:04 29° NNW 21:40:09 10° NE visible
26 Nov - 23:43:08 10° NW 00:00:59 22° N 00:16:54 10° NE visible
27 Nov - 02:20:31 10° NW 02:40:15 33° NNE 02:52:34 10° E visible
27 Nov - 04:54:03 10° NW 05:11:46 78° NE 05:20:23 10° ESE visible
27 Nov - 07:30:02 10° W 07:37:33 22° SW 07:42:35 10° S daylight
27 Nov - 14:58:49 10° S 15:04:30 22° SE 15:13:11 10° E daylight
27 Nov - 17:20:57 10° SW 17:30:45 86° NW 17:50:42 10° NE daylight
27 Nov - 19:48:42 10° W 20:02:39 37° NNW 20:24:31 10° NE visible
27 Nov - 22:25:11 10° NW 22:42:06 22° N 23:00:07 10° NE visible
28 Nov - 01:04:20 10° NW 01:24:02 27° NNE 01:38:22 10° ENE visible
28 Nov - 03:38:30 10° NW 03:58:44 54° NNE 04:09:18 10° ESE visible
28 Nov - 06:13:07 10° WNW 06:26:35 47° SW 06:33:43 10° SSE daylight
28 Nov - 16:10:43 10° SW 16:18:41 60° SE 16:34:31 10° ENE daylight
28 Nov - 18:35:59 10° W 18:47:40 49° NNW 19:08:55 10° NE visible
28 Nov - 21:08:26 10° WNW 21:23:48 25° NNW 21:43:22 10° NE visible
28 Nov - 23:47:37 10° NW 00:06:16 23° N 00:22:25 10° NE visible
29 Nov - 02:22:56 10° NW 02:44:22 41° NNE 02:57:08 10° E visible
29 Nov - 04:56:52 10° NW 05:15:00 82° SW 05:23:49 10° SE visible
29 Nov - 07:35:24 10° WSW 07:40:39 15° SW 07:44:39 10° S daylight
29 Nov - 15:01:22 10° SSW 15:07:30 31° SE 15:17:49 10° E daylight
29 Nov - 17:24:30 10° WSW 17:34:04 68° NNW 17:53:20 10° NE daylight
29 Nov - 19:53:29 10° WNW 20:06:54 31° NNW 20:27:04 10° NE visible
29 Nov - 22:30:34 10° NW 22:47:28 22° N 23:04:58 10° NE visible
